Home   Weather   Ravensburg   Past weeks

Flag for Germany Past Weather in Ravensburg, Baden-Württemberg, Germany — Yesterday and Last 2 Weeks

Now
46 °F

Broken clouds.


Feels Like: 45 °F
Forecast: 31 / 62 °F
Wind: 3 mph from North

Location: Friedrichshafen Airport

Current Time: Apr 23, 2017 at 12:05:55 pm

Latest Report: Apr 23, 2017 at 11:20 am


Visibility: N/A

Pressure: 30.24 "Hg

Humidity: 57%

Dew Point: 32 °F

Location of RavensburgLocation

Past Weather in Ravensburg — Graph

°F

Ravensburg Temperature Yesterday

Maximum temperature yesterday: 57 °F (at 12:50 pm)
Minimum temperature yesterday: 28 °F (at 4:20 am)
Average temperature yesterday: 44 °F

High & Low Weather Summary for the Past Weeks

 TemperatureHumidityPressure
High73 °F (Apr 10, 3:50 pm)100% (Apr 9, 5:50 am)30.51 "Hg (Apr 9, 5:50 am)
Low25 °F (Apr 21, 5:50 am)11% (Apr 21, 4:50 pm)29.95 "Hg (Apr 12, 7:20 pm)
Average47 °F69%30.19 "Hg
* Reported Apr 8 10:20 am — Apr 23 10:50 am, Ravensburg, Weather by CustomWeather, © 2017

Note: Actual official high and low records may vary slightly from our data, if they occured in-between our weather recording intervals... More about our weather records

Advertising

Ravensburg Weather History for the Previous 24 Hours

Scroll right to see more
 ConditionsComfort  
Time TempWeatherWind HumidityBarometerVisibility
10:50 am
Sun, Apr 23
46 °FBroken clouds.6 mph62%30.24 "HgN/A
10:20 am46 °FPartly sunny.2 mph62%30.24 "HgN/A
9:50 am45 °FPartly sunny.2 mph57%30.24 "HgN/A
9:20 am45 °FPassing clouds.2 mph76%30.24 "HgN/A
8:50 am43 °FScattered clouds.2 mph76%30.24 "HgN/A
8:20 am41 °FMore clouds than sun.2 mph87%30.24 "HgN/A
7:50 am39 °FMostly cloudy.2 mph93%30.24 "HgN/A
7:20 am37 °FPartly sunny.2 mph93%30.21 "HgN/A
6:50 am37 °FBroken clouds.2 mph93%30.21 "HgN/A
6:20 am37 °FScattered clouds.2 mph93%30.21 "HgN/A
5:50 am39 °FOvercast.2 mph87%30.21 "HgN/A
5:20 am41 °FOvercast.2 mph81%30.21 "HgN/A
4:50 am41 °FPassing clouds.No wind81%30.21 "HgN/A
4:20 am41 °FOvercast.5 mph81%30.21 "HgN/A
3:50 am41 °FOvercast.3 mph87%30.21 "HgN/A
3:20 am41 °FOvercast.2 mph87%30.21 "HgN/A
2:50 am41 °FOvercast.3 mph87%30.21 "HgN/A
2:20 am41 °FDrizzle. Overcast.3 mph87%30.21 "HgN/A
1:50 am41 °FDrizzle. Overcast.6 mph93%30.24 "HgN/A
1:20 am43 °FDrizzle. Overcast.3 mph81%30.21 "HgN/A
12:50 am43 °FDrizzle. Overcast.3 mph76%30.21 "HgN/A
12:20 am43 °FSprinkles. Overcast.5 mph76%30.21 "HgN/A
11:50 pm
Sat, Apr 22
45 °FSprinkles. Overcast.6 mph76%30.21 "HgN/A
11:20 pm45 °FDrizzle. Mostly cloudy.8 mph81%30.21 "HgN/A
10:50 pm46 °FLight rain. Mostly cloudy.7 mph82%30.21 "HgN/A
10:20 pm48 °FSprinkles. Overcast.2 mph76%30.18 "HgN/A
9:50 pm50 °FSprinkles. Overcast.2 mph67%30.18 "HgN/A
9:20 pm50 °FSprinkles. Mostly cloudy.2 mph62%30.18 "HgN/A
8:20 pm52 °FMostly cloudy.1 mph58%30.15 "HgN/A
7:50 pm52 °FOvercast.1 mph58%30.15 "HgN/A
7:20 pm54 °FOvercast.2 mph51%30.15 "HgN/A
6:50 pm54 °FSunny.3 mph51%30.15 "Hg10 mi
6:20 pm54 °FOvercast.3 mph51%30.15 "HgN/A
5:50 pm55 °FSunny.6 mph47%30.15 "Hg10 mi
5:20 pm55 °FSunny.5 mph44%30.15 "Hg10 mi
4:50 pm55 °FSunny.7 mph44%30.18 "Hg10 mi
4:20 pm57 °FSunny.6 mph44%30.18 "Hg10 mi
3:50 pm57 °FSunny.8 mph44%30.18 "Hg10 mi
3:20 pm57 °FSunny.7 mph44%30.18 "Hg10 mi
2:50 pm57 °FSunny.7 mph44%30.18 "Hg10 mi
2:20 pm57 °FSunny.7 mph48%30.21 "Hg10 mi
1:50 pm55 °FMostly cloudy.6 mph47%30.21 "HgN/A
1:20 pm55 °FPartly sunny.9 mph51%30.21 "HgN/A
12:50 pm57 °FSunny.12 mph44%30.24 "Hg10 mi
12:20 pm54 °FSunny.7 mph51%30.24 "Hg10 mi
Weather by CustomWeather, © 2017

See weather overviewHow to use our weather pages